Powrót do katalogu

METEOR 2-8 DEB

LostPO
NORAD 36866·DEBRIS·🇷🇺 Russia

Wystrzelony Mar 25, 1982 z Plesetsk Cosmodrome

Loading…

Następne Przeloty (najbliższe 24 godziny)

TLE

NieaktualneSource: Space-Track

Epoka: Nov 27, 2023, 11:17 UTC

1 36866U 82025BD  23331.47068443  .00005542  00000-0  32662-2 0  9991
2 36866  82.5315  21.3738 0016106  16.5771 343.5925 14.07684203  7328

Śledź METEOR 2-8 DEB w czasie rzeczywistym z AllMySat

Download on the App Store